Hourly Weather Belize

Today, 6 July, Monday

Time Temperature Precipitation Wind Pressure Humidity
00:00 +26°C° 0 mm 8 mps 759 mmHg 97%
01:00 +26°C° 0 mm 8 mps 759 mmHg 97%
02:00 +26°C° 0 mm 8 mps 758 mmHg 98%
03:00 +26°C° 0 mm 8 mps 758 mmHg 98%
04:00 +26°C° 0 mm 8 mps 758 mmHg 98%
05:00 +27°C° 0 mm 7 mps 758 mmHg 98%
06:00 +27°C° 0 mm 7 mps 758 mmHg 98%
07:00 +28°C° 0 mm 7 mps 759 mmHg 87%
08:00 +30°C° 0 mm 7 mps 759 mmHg 77%
09:00 +33°C° 0 mm 7 mps 760 mmHg 66%
10:00 +34°C° 0 mm 7 mps 760 mmHg 62%
11:00 +35°C° 0 mm 7 mps 760 mmHg 58%
12:00 +35°C° 0 mm 6 mps 760 mmHg 54%
13:00 +35°C° 0 mm 6 mps 759 mmHg 54%
14:00 +35°C° 0 mm 6 mps 759 mmHg 54%
15:00 +35°C° 0 mm 6 mps 758 mmHg 54%
16:00 +33°C° 0 mm 6 mps 758 mmHg 63%
17:00 +32°C° 0 mm 6 mps 758 mmHg 71%
18:00 +29°C° 0 mm 6 mps 759 mmHg 80%
19:00 +29°C° 0 mm 6 mps 759 mmHg 85%
20:00 +28°C° 0 mm 6 mps 759 mmHg 90%
21:00 +27°C° 0 mm 6 mps 760 mmHg 96%
22:00 +27°C° 0.2 mm 6 mps 760 mmHg 96%
23:00 +27°C° 0.2 mm 6 mps 760 mmHg 97%

Tomorrow, 7 July, Tuesday

Time Temperature Precipitation Wind Pressure Humidity
00:00 +27°C° 0.2 mm 6 mps 760 mmHg 98%
01:00 +27°C° 0.1 mm 6 mps 759 mmHg 98%
02:00 +27°C° 0.1 mm 6 mps 759 mmHg 98%
03:00 +26°C° 0.1 mm 6 mps 759 mmHg 98%
04:00 +27°C° 0.1 mm 6 mps 759 mmHg 98%
05:00 +27°C° 0.1 mm 6 mps 759 mmHg 98%
06:00 +27°C° 0.1 mm 5 mps 759 mmHg 98%
07:00 +28°C° 0.2 mm 6 mps 760 mmHg 95%
08:00 +29°C° 0.2 mm 6 mps 760 mmHg 91%
09:00 +30°C° 0.2 mm 6 mps 761 mmHg 88%
10:00 +30°C° 0.4 mm 5 mps 761 mmHg 86%
11:00 +30°C° 0.4 mm 5 mps 761 mmHg 84%
12:00 +32°C° 0.4 mm 5 mps 760 mmHg 82%
13:00 +32°C° 0.3 mm 5 mps 760 mmHg 77%
14:00 +33°C° 0.3 mm 4 mps 759 mmHg 72%
15:00 +33°C° 0.3 mm 4 mps 759 mmHg 66%
16:00 +33°C° 0 mm 4 mps 759 mmHg 71%
17:00 +32°C° 0 mm 4 mps 759 mmHg 76%
18:00 +30°C° 0 mm 4 mps 759 mmHg 81%
19:00 +28°C° 0 mm 4 mps 759 mmHg 86%
20:00 +27°C° 0 mm 4 mps 759 mmHg 92%
21:00 +26°C° 0 mm 4 mps 760 mmHg 98%
22:00 +26°C° 0 mm 4 mps 760 mmHg 98%
23:00 +26°C° 0 mm 4 mps 760 mmHg 98%

Day after tomorrow, 8 July, Wednesday

Time Temperature Precipitation Wind Pressure Humidity
00:00 +26°C° 0 mm 4 mps 760 mmHg 98%
01:00 +26°C° 0 mm 4 mps 759 mmHg 98%
02:00 +26°C° 0 mm 4 mps 759 mmHg 97%
03:00 +26°C° 0 mm 4 mps 759 mmHg 97%
04:00 +26°C° 0 mm 4 mps 759 mmHg 97%
05:00 +26°C° 0 mm 4 mps 759 mmHg 96%
06:00 +26°C° 0 mm 4 mps 759 mmHg 96%
07:00 +28°C° 0 mm 4 mps 759 mmHg 86%
08:00 +30°C° 0 mm 4 mps 760 mmHg 75%
09:00 +33°C° 0 mm 4 mps 760 mmHg 64%
10:00 +34°C° 0 mm 4 mps 760 mmHg 61%
11:00 +34°C° 0 mm 4 mps 760 mmHg 57%
12:00 +35°C° 0 mm 4 mps 759 mmHg 53%
13:00 +35°C° 0 mm 4 mps 759 mmHg 54%
14:00 +35°C° 0 mm 4 mps 758 mmHg 54%
15:00 +34°C° 0 mm 4 mps 757 mmHg 55%
16:00 +33°C° 0 mm 4 mps 757 mmHg 63%
17:00 +32°C° 0 mm 4 mps 757 mmHg 70%
18:00 +29°C° 0 mm 3 mps 757 mmHg 78%
19:00 +28°C° 0 mm 4 mps 758 mmHg 85%
20:00 +27°C° 0 mm 4 mps 758 mmHg 91%
21:00 +26°C° 0 mm 4 mps 759 mmHg 98%
22:00 +26°C° 0 mm 4 mps 759 mmHg 98%
23:00 +26°C° 0 mm 4 mps 759 mmHg 97%

9 July, Thursday

Time Temperature Precipitation Wind Pressure Humidity
00:00 +26°C° 0 mm 4 mps 758 mmHg 97%
01:00 +26°C° 0 mm 4 mps 758 mmHg 96%
02:00 +26°C° 0 mm 4 mps 758 mmHg 96%
03:00 +26°C° 0 mm 3 mps 758 mmHg 95%
04:00 +26°C° 0 mm 3 mps 758 mmHg 95%
05:00 +26°C° 0 mm 3 mps 758 mmHg 96%
06:00 +26°C° 0 mm 3 mps 758 mmHg 96%
07:00 +28°C° 0 mm 3 mps 758 mmHg 85%
08:00 +30°C° 0 mm 3 mps 759 mmHg 73%
09:00 +33°C° 0 mm 3 mps 759 mmHg 61%
10:00 +34°C° 0 mm 3 mps 759 mmHg 57%
11:00 +35°C° 0 mm 3 mps 759 mmHg 53%
12:00 +36°C° 0 mm 3 mps 758 mmHg 48%
13:00 +36°C° 0 mm 3 mps 758 mmHg 49%
14:00 +36°C° 0 mm 3 mps 757 mmHg 50%
15:00 +35°C° 0 mm 3 mps 757 mmHg 50%
16:00 +34°C° 0 mm 3 mps 757 mmHg 58%
17:00 +31°C° 0 mm 3 mps 757 mmHg 66%
18:00 +30°C° 0 mm 3 mps 757 mmHg 74%
19:00 +29°C° 0.1 mm 4 mps 758 mmHg 80%
20:00 +27°C° 0.1 mm 4 mps 758 mmHg 87%
21:00 +26°C° 0.1 mm 4 mps 759 mmHg 93%
22:00 +26°C° 0 mm 4 mps 759 mmHg 95%
23:00 +26°C° 0 mm 3 mps 759 mmHg 96%

10 July, Friday

Time Temperature Precipitation Wind Pressure Humidity
00:00 +26°C° 0 mm 3 mps 759 mmHg 98%
01:00 +26°C° 0 mm 3 mps 758 mmHg 98%
02:00 +25°C° 0 mm 2 mps 758 mmHg 98%
03:00 +25°C° 0 mm 2 mps 758 mmHg 98%
04:00 +25°C° 1.1 mm 2 mps 758 mmHg 98%
05:00 +26°C° 1.1 mm 2 mps 758 mmHg 97%
06:00 +26°C° 1.1 mm 2 mps 759 mmHg 97%
07:00 +27°C° 0.8 mm 2 mps 759 mmHg 92%
08:00 +28°C° 0.8 mm 2 mps 759 mmHg 88%
09:00 +30°C° 0.8 mm 2 mps 760 mmHg 84%
10:00 +31°C° 0.3 mm 2 mps 760 mmHg 79%
11:00 +33°C° 0.3 mm 3 mps 760 mmHg 74%
12:00 +34°C° 0.3 mm 4 mps 760 mmHg 68%
13:00 +34°C° 0 mm 4 mps 759 mmHg 65%
14:00 +34°C° 0 mm 4 mps 759 mmHg 61%
15:00 +35°C° 0 mm 5 mps 758 mmHg 58%
16:00 +33°C° 0 mm 5 mps 758 mmHg 65%
17:00 +32°C° 0 mm 5 mps 759 mmHg 72%
18:00 +30°C° 0 mm 5 mps 759 mmHg 79%
19:00 +29°C° 0.1 mm 6 mps 759 mmHg 85%
20:00 +28°C° 0.1 mm 6 mps 759 mmHg 90%
21:00 +27°C° 0.1 mm 6 mps 760 mmHg 96%
22:00 +27°C° 0 mm 6 mps 760 mmHg 96%
23:00 +27°C° 0 mm 6 mps 760 mmHg 97%

11 July, Saturday

Time Temperature Precipitation Wind Pressure Humidity
00:00 +26°C° 0 mm 6 mps 760 mmHg 97%
01:00 +26°C° 0 mm 6 mps 759 mmHg 98%
02:00 +26°C° 0 mm 6 mps 759 mmHg 98%
03:00 +26°C° 0 mm 6 mps 759 mmHg 98%
04:00 +26°C° 0 mm 5 mps 759 mmHg 98%
05:00 +26°C° 0 mm 5 mps 759 mmHg 97%
06:00 +27°C° 0 mm 5 mps 759 mmHg 97%
07:00 +28°C° 0 mm 5 mps 760 mmHg 86%
08:00 +30°C° 0 mm 5 mps 760 mmHg 75%
09:00 +33°C° 0 mm 6 mps 761 mmHg 64%
10:00 +34°C° 0 mm 5 mps 760 mmHg 60%
11:00 +35°C° 0 mm 5 mps 760 mmHg 55%
12:00 +36°C° 0 mm 4 mps 760 mmHg 51%
13:00 +35°C° 0 mm 4 mps 760 mmHg 52%
14:00 +35°C° 0 mm 4 mps 759 mmHg 53%
15:00 +35°C° 0 mm 4 mps 759 mmHg 54%
16:00 +34°C° 0 mm 4 mps 759 mmHg 61%
17:00 +32°C° 0 mm 4 mps 759 mmHg 69%
18:00 +30°C° 0 mm 4 mps 759 mmHg 77%
19:00 +29°C° 0 mm 4 mps 759 mmHg 83%
20:00 +27°C° 0 mm 4 mps 760 mmHg 89%
21:00 +26°C° 0 mm 4 mps 760 mmHg 95%
22:00 +26°C° 0.1 mm 4 mps 760 mmHg 95%
23:00 +26°C° 0.1 mm 4 mps 760 mmHg 96%
Show more